Wind_Speed
45 45 45 43 44 46 46 46 45 45 45 45 45 44 43 43 43 42 42 41 40 39 39 38 37 37 36 36 35 35 35 35 35 35 35 35 35 35 36 36 37 37 38 38
46 45 43 44 45 46 46 46 46 46 46 46 45 45 44 44 44 43 42 41 41 40 39 39 38 37 37 36 36 36 36 37 37 37 37 36 36 37 37 38 38 39 39 40
44 44 44 45 46 46 47 46 46 46 46 47 47 46 45 44 44 44 43 42 41 40 40 40 39 38 37 37 37 37 37 38 38 38 38 38 38 38 38 38 39 40 41 41
44 44 44 44 45 46 46 46 46 46 47 48 47 48 46 45 44 44 43 43 42 42 41 41 40 40 39 38 38 39 39 39 39 39 39 39 39 39 39 40 40 41 41 42
44 44 44 44 43 44 44 44 44 46 47 48 48 49 47 46 45 43 44 44 43 42 42 41 41 40 40 40 39 40 40 40 39 40 40 40 40 40 41 41 41 42 42 43
42 43 44 42 43 44 44 44 43 44 46 48 47 48 48 46 44 43 43 43 43 42 42 41 41 41 41 40 40 40 40 40 40 40 41 41 41 42 42 43 43 43 44 44
41 42 43 42 42 43 44 44 44 45 47 48 46 47 47 44 43 42 42 43 43 43 43 42 42 41 41 41 41 41 41 41 41 42 42 42 43 43 44 44 45 45 45 45
41 41 42 42 42 42 43 44 44 45 46 46 45 47 46 44 42 42 42 42 43 43 43 43 42 42 42 42 42 42 42 42 43 43 43 44 44 45 46 46 46 46 46 46
40 41 41 41 41 41 42 42 42 44 45 45 46 46 45 43 42 42 41 41 42 43 43 43 43 42 42 42 43 43 43 43 44 44 44 45 45 45 46 46 47 47 48 48
39 40 40 41 41 42 41 41 41 42 44 45 45 45 45 43 41 41 40 40 40 41 42 42 42 42 42 43 43 43 43 43 44 44 44 44 44 45 45 46 47 48 48 48
37 39 39 40 41 41 41 41 42 42 44 44 45 44 43 42 42 41 41 40 40 40 40 40 41 41 41 42 42 43 43 43 44 44 44 44 45 45 45 46 46 47 48 49
36 37 37 38 39 40 42 41 41 41 43 44 43 43 41 41 41 40 40 40 40 40 40 40 40 40 41 41 41 42 42 43 43 44 44 45 45 45 45 46 46 47 47 48
34 35 36 37 38 38 40 40 40 40 40 41 41 42 41 40 40 40 39 39 40 40 40 39 39 40 40 40 41 41 42 42 43 43 44 44 45 45 45 45 46 46 46 46
31 34 35 36 36 36 37 38 40 40 40 39 39 39 40 40 40 40 40 40 40 40 40 39 39 39 40 40 40 41 41 41 42 42 43 43 44 44 44 45 44 45 45 45
30 32 33 33 34 34 34 36 37 40 39 38 37 37 37 38 39 39 40 41 41 40 39 39 39 40 40 40 40 40 40 41 41 42 43 43 44 44 44 43 44 44 44 43
29 30 30 31 32 33 33 33 35 36 38 37 37 36 35 36 37 38 39 39 40 40 40 40 40 40 40 40 40 39 40 40 40 41 42 42 42 42 42 43 43 43 43 42
26 28 29 30 31 33 34 32 33 34 35 35 36 35 34 35 35 36 37 38 38 38 38 39 39 40 40 40 40 40 40 39 39 40 41 41 41 41 41 42 43 42 42 42
25 26 28 28 30 32 32 33 33 33 33 35 36 35 34 35 35 36 36 37 37 37 37 38 38 38 39 39 40 40 40 40 39 40 40 40 40 40 42 42 42 43 42 42
23 23 24 26 27 29 30 31 32 32 31 33 34 35 34 34 35 35 35 36 37 37 37 37 38 38 38 38 39 39 40 40 40 40 40 40 40 41 42 42 42 42 42 42
21 22 23 25 26 27 27 28 29 31 31 30 31 33 33 33 33 34 35 36 36 37 38 38 37 37 37 37 38 39 39 39 40 40 40 40 40 40 41 41 41 41 41 41
20 22 23 23 25 26 26 27 27 29 29 29 31 31 32 33 34 34 34 35 36 37 38 38 38 38 37 37 37 38 38 38 39 39 39 39 39 39 39 39 39 40 40 41
19 20 21 23 24 24 25 27 28 28 28 29 30 31 31 31 32 33 33 34 35 36 36 37 37 37 37 37 37 37 37 37 38 38 38 39 39 38 38 38 39 39 39 39
19 20 21 22 22 22 23 25 27 28 28 28 29 30 30 30 30 31 32 33 34 35 36 36 36 36 36 36 37 37 37 37 37 38 38 38 38 38 38 38 37 37 37 37
18 19 20 21 21 22 22 23 24 25 26 27 28 29 30 30 30 31 32 32 33 34 34 34 34 35 35 35 35 36 36 36 37 37 37 37 37 36 36 36 36 36 36 36
17 19 20 20 20 21 21 22 23 24 25 27 27 28 29 29 30 31 31 31 32 32 33 33 34 34 35 35 35 35 36 36 36 36 35 35 35 35 35 35 35 35 35 34
17 17 18 19 20 21 21 22 22 23 24 25 27 28 28 29 30 30 31 31 31 32 32 33 33 34 34 35 35 35 35 35 35 34 34 34 34 34 34 34 34 34 33 33
Wind_Direction
234 235 235 235 236 236 236 236 236 236 236 237 238 237 236 236 237 238 238 239 239 240 240 241 241 242 243 245 246 246 248 250 252 254 256 258 260 262 263 265 266 267 268 268
234 235 234 234 234 235 236 236 236 236 237 237 237 237 236 237 237 238 238 238 239 239 240 241 242 242 243 245 246 248 249 251 253 256 258 260 261 262 264 265 266 267 268 269
234 234 233 234 234 235 235 236 236 237 237 238 238 237 236 236 238 238 238 238 239 239 240 241 242 243 244 245 247 248 250 252 255 257 259 260 261 263 264 266 267 268 269 269
232 232 233 234 233 234 235 236 236 237 237 238 238 239 236 236 237 238 238 239 239 240 241 242 243 244 245 246 247 249 251 253 255 257 259 261 262 263 264 265 267 268 269 270
233 232 232 232 232 234 235 235 237 238 239 239 238 240 237 237 237 238 239 240 240 240 241 242 243 244 246 247 248 250 253 254 256 258 260 262 263 264 265 266 267 268 269 270
232 231 232 232 232 234 234 235 236 237 238 239 238 241 239 238 238 238 239 240 240 241 241 242 243 245 246 247 249 251 253 255 257 258 260 262 263 264 265 266 268 269 270 271
231 231 231 231 232 233 234 234 235 236 237 239 239 241 241 239 239 240 240 241 241 241 242 243 245 246 247 248 250 252 254 256 258 259 261 262 264 265 265 266 268 269 270 271
231 231 231 231 232 233 235 236 237 239 240 241 240 241 241 241 240 240 241 241 242 242 243 244 245 247 248 249 250 252 254 256 258 260 262 264 265 266 267 268 269 270 271 271
230 232 232 232 232 233 233 233 236 239 241 242 242 242 242 242 243 242 242 242 242 242 244 245 246 247 248 249 250 252 254 257 259 262 263 264 266 266 267 268 269 270 271 272
231 232 232 232 232 232 232 233 234 236 239 241 242 243 244 244 245 244 242 242 242 242 243 245 246 247 248 250 252 254 255 258 260 262 263 264 264 265 266 268 269 270 271 271
231 232 232 233 232 231 231 231 233 236 239 241 243 243 244 245 245 245 244 242 242 242 243 244 246 247 249 251 253 254 256 259 260 261 262 263 264 265 267 269 271 272 272 272
232 232 232 233 233 232 231 232 234 237 239 240 242 244 243 245 245 245 245 244 243 243 243 244 246 247 250 253 254 256 258 259 260 260 262 263 264 266 267 269 271 272 273 273
232 232 232 231 231 231 232 233 234 236 238 240 242 243 242 243 244 244 244 245 245 244 244 246 247 249 251 253 255 257 258 259 259 260 261 263 265 266 267 269 269 271 272 274
232 234 234 234 234 234 233 234 235 235 236 239 240 241 241 242 244 244 245 245 245 245 246 247 248 250 252 254 255 257 257 259 259 260 262 263 265 266 267 268 269 270 272 273
231 234 234 234 234 234 235 234 235 236 236 239 239 240 240 241 243 244 245 245 245 246 247 248 250 251 253 255 256 257 258 259 260 261 263 264 265 266 266 267 268 270 271 271
231 234 234 234 234 235 234 234 234 235 236 238 238 237 238 240 240 241 242 244 244 245 247 248 249 251 253 255 256 256 258 259 261 262 263 264 265 265 266 267 268 270 270 270
233 233 234 234 233 235 235 234 235 235 235 236 237 236 238 238 238 240 242 243 244 244 246 247 247 249 251 253 255 256 258 259 261 262 263 264 265 265 266 268 269 270 270 271
231 233 234 234 232 236 236 235 236 236 235 235 235 235 237 238 240 241 242 243 243 243 244 245 246 249 251 253 255 257 258 259 261 263 263 264 264 265 267 268 269 270 271 273
230 231 233 232 235 237 236 235 236 237 236 235 235 236 237 237 240 240 241 242 243 243 244 245 246 249 251 253 255 257 258 260 262 263 263 263 264 266 267 267 268 270 272 273
230 231 232 231 234 235 234 235 235 236 236 235 235 235 236 237 240 241 242 242 242 243 245 247 249 250 252 253 255 257 258 260 261 263 263 264 265 266 267 267 268 270 271 273
233 232 233 233 235 237 237 236 235 236 236 236 237 237 238 239 242 243 244 245 245 247 247 248 250 252 253 255 256 258 259 260 262 263 263 265 266 267 267 267 268 269 271 273
231 234 235 235 238 238 238 238 237 238 237 238 239 240 241 242 243 245 247 248 249 251 252 252 253 254 255 256 258 259 260 261 261 262 263 265 266 266 266 267 268 269 271 271
232 232 233 235 237 237 237 239 239 238 239 239 240 241 243 244 245 245 247 248 250 252 253 254 255 256 256 258 260 261 261 261 262 263 264 265 266 266 266 267 268 269 270 271
232 233 235 237 237 238 240 241 241 241 241 241 241 242 243 246 247 248 249 250 251 251 253 254 256 257 259 259 260 260 260 261 262 263 264 265 266 266 266 267 268 270 272 272
236 237 237 237 239 241 243 244 244 245 245 245 243 242 244 246 247 249 250 251 251 252 253 254 256 258 260 260 261 260 260 261 262 263 264 264 265 265 267 267 269 271 272 273
235 237 238 240 241 243 246 247 247 248 248 247 246 245 247 248 248 248 250 251 252 253 255 256 257 258 259 260 260 261 261 261 262 263 263 264 265 265 267 268 268 270 272 273
Height
5648 5654 5659 5666 5669 5674 5677 5682 5687 5692 5695 5699 5703 5708 5713 5716 5720 5725 5728 5732 5736 5740 5743 5746 5749 5752 5755 5758 5760 5763 5764 5766 5768 5769 5771 5772 5773 5774 5775 5775 5775 5776 5776 5776
5638 5644 5651 5653 5657 5662 5666 5671 5676 5681 5685 5688 5693 5698 5703 5707 5711 5715 5719 5723 5727 5731 5734 5738 5741 5744 5747 5750 5752 5754 5756 5758 5759 5761 5762 5763 5764 5765 5766 5766 5767 5767 5767 5766
5628 5636 5638 5642 5646 5651 5656 5661 5666 5671 5674 5677 5682 5688 5693 5698 5701 5706 5710 5714 5718 5722 5725 5729 5732 5735 5738 5741 5743 5745 5747 5749 5750 5752 5753 5754 5755 5756 5757 5757 5757 5757 5757 5756
5617 5623 5627 5631 5636 5641 5646 5652 5656 5659 5663 5667 5672 5676 5684 5688 5692 5696 5701 5705 5709 5713 5716 5720 5723 5726 5729 5732 5734 5736 5738 5739 5741 5742 5743 5744 5746 5747 5747 5747 5747 5747 5746 5746
5607 5612 5616 5622 5628 5632 5637 5641 5645 5648 5651 5656 5661 5664 5673 5677 5682 5687 5691 5695 5699 5703 5707 5710 5714 5717 5719 5722 5724 5726 5728 5730 5731 5733 5734 5735 5735 5736 5736 5737 5737 5736 5736 5735
5597 5601 5606 5613 5618 5622 5627 5631 5634 5637 5639 5644 5651 5654 5660 5667 5673 5677 5681 5685 5689 5693 5697 5700 5703 5706 5709 5712 5714 5716 5718 5720 5721 5722 5723 5724 5725 5725 5726 5726 5726 5725 5725 5724
5586 5591 5596 5602 5607 5611 5616 5621 5624 5626 5628 5635 5641 5643 5650 5657 5662 5667 5671 5675 5679 5683 5687 5690 5693 5696 5699 5702 5704 5706 5708 5709 5711 5712 5713 5713 5713 5714 5714 5714 5714 5714 5713 5712
5577 5582 5587 5592 5597 5602 5607 5611 5616 5618 5622 5627 5630 5633 5641 5647 5651 5656 5660 5664 5668 5672 5676 5679 5682 5685 5688 5691 5693 5695 5697 5699 5700 5701 5701 5701 5701 5701 5701 5701 5701 5701 5701 5700
5567 5573 5578 5583 5588 5593 5596 5601 5606 5609 5612 5616 5619 5625 5631 5636 5640 5645 5650 5654 5658 5661 5665 5668 5671 5674 5677 5680 5682 5684 5686 5688 5688 5689 5689 5689 5689 5689 5688 5688 5688 5688 5688 5688
5557 5563 5568 5573 5577 5582 5587 5592 5596 5599 5602 5605 5610 5615 5621 5627 5631 5635 5639 5643 5647 5650 5654 5657 5660 5663 5666 5669 5671 5673 5675 5676 5677 5677 5677 5677 5677 5677 5676 5676 5675 5675 5674 5674
5549 5554 5559 5563 5568 5573 5578 5582 5585 5589 5592 5597 5600 5608 5612 5617 5621 5625 5629 5633 5637 5640 5643 5647 5650 5653 5655 5658 5660 5662 5664 5665 5665 5665 5665 5665 5665 5665 5665 5664 5663 5662 5661 5661
5540 5544 5549 5554 5559 5563 5567 5572 5577 5581 5584 5588 5592 5600 5603 5607 5610 5614 5618 5622 5626 5630 5633 5636 5640 5642 5645 5647 5649 5651 5652 5653 5654 5654 5654 5654 5654 5653 5653 5653 5651 5650 5649 5649
5531 5536 5540 5545 5551 5554 5558 5562 5567 5571 5575 5578 5583 5591 5593 5597 5600 5604 5608 5612 5615 5619 5623 5626 5629 5632 5634 5636 5638 5640 5641 5642 5642 5642 5643 5642 5642 5642 5642 5641 5640 5639 5638 5637
5524 5528 5533 5538 5542 5545 5550 5554 5558 5561 5565 5569 5574 5580 5584 5587 5590 5594 5598 5602 5605 5609 5612 5616 5619 5621 5623 5625 5627 5629 5630 5631 5631 5631 5632 5631 5631 5631 5630 5630 5629 5628 5627 5626
5516 5520 5524 5528 5533 5537 5540 5545 5548 5552 5556 5560 5566 5570 5574 5577 5581 5584 5588 5591 5595 5599 5602 5605 5608 5610 5613 5614 5616 5618 5619 5619 5620 5620 5621 5621 5620 5620 5619 5619 5618 5617 5616 5616
5509 5513 5516 5520 5524 5528 5531 5535 5539 5543 5547 5551 5555 5560 5564 5567 5571 5574 5578 5581 5585 5588 5591 5594 5597 5599 5602 5604 5605 5607 5608 5609 5609 5610 5610 5610 5610 5609 5609 5608 5608 5607 5606 5605
5503 5507 5510 5513 5516 5519 5524 5528 5532 5536 5540 5543 5547 5553 5555 5558 5561 5565 5568 5571 5575 5578 5581 5583 5586 5588 5591 5593 5595 5596 5597 5598 5598 5599 5599 5599 5599 5599 5599 5598 5597 5596 5596 5595
5497 5499 5502 5505 5509 5513 5519 5520 5524 5527 5531 5535 5539 5543 5546 5550 5552 5556 5559 5562 5565 5568 5570 5573 5575 5578 5580 5582 5584 5585 5586 5587 5588 5588 5588 5588 5588 5588 5588 5587 5587 5586 5585 5584
5490 5493 5496 5499 5502 5505 5510 5513 5516 5520 5524 5527 5531 5534 5537 5540 5543 5547 5550 5553 5555 5558 5560 5563 5565 5567 5569 5571 5573 5574 5575 5576 5577 5577 5578 5578 5578 5578 5577 5576 5576 5575 5574 5574
5485 5487 5491 5493 5496 5499 5504 5506 5509 5513 5516 5519 5523 5526 5529 5532 5535 5538 5541 5543 5546 5548 5550 5553 5555 5557 5559 5561 5562 5563 5565 5565 5566 5567 5567 5567 5567 5567 5566 5566 5565 5564 5563 5563
5479 5481 5484 5487 5489 5492 5496 5499 5502 5507 5510 5512 5515 5518 5521 5524 5527 5529 5531 5534 5536 5538 5541 5543 5545 5547 5549 5550 5552 5553 5554 5555 5555 5556 5556 5556 5556 5556 5555 5555 5554 5554 5553 5552
5474 5476 5479 5481 5484 5489 5490 5492 5496 5498 5501 5504 5506 5509 5512 5515 5517 5520 5522 5524 5526 5528 5531 5533 5535 5537 5538 5540 5541 5542 5543 5544 5544 5545 5545 5545 5545 5545 5545 5545 5544 5543 5542 5541
5469 5472 5474 5477 5481 5482 5483 5485 5488 5490 5493 5496 5498 5501 5504 5506 5509 5511 5513 5515 5517 5519 5521 5523 5525 5526 5528 5529 5530 5531 5532 5533 5534 5534 5534 5534 5534 5534 5534 5534 5533 5533 5532 5531
5465 5467 5469 5471 5474 5475 5477 5479 5481 5483 5486 5488 5490 5493 5495 5498 5500 5502 5504 5506 5508 5510 5512 5513 5515 5516 5517 5518 5520 5521 5522 5522 5523 5523 5523 5523 5524 5523 5523 5523 5523 5522 5522 5521
5460 5462 5464 5466 5468 5470 5472 5473 5475 5477 5478 5480 5482 5485 5487 5489 5491 5493 5495 5497 5499 5501 5502 5504 5505 5506 5507 5508 5509 5510 5511 5512 5512 5513 5513 5513 5513 5513 5514 5513 5513 5513 5512 5511
5455 5457 5459 5461 5462 5464 5466 5467 5468 5470 5471 5473 5475 5477 5479 5481 5482 5484 5486 5488 5490 5491 5492 5494 5495 5496 5497 5498 5499 5499 5500 5501 5502 5503 5503 5503 5504 5504 5504 5504 5504 5503 5502 5502